Hourly Data Report for February 08, 2018

MIRAMICHI RCS
NEW BRUNSWICK

47°00'34.000" N
65°27'54.000" W
33.00 m
8100989
71744
ACQ

Download Data

Hourly Data (February 2018)
Hourly Data Report for February 8, 2018
TIME
LST
Temp Definition
°C
Dew Point Definition
°C
Rel Hum Definition
%
Precip. Amount Definition
mm

Wind Dir Definition
10's deg

Wind Spd Definition
km/h
Visibility Definition
km
Stn Press Definition
kPa
Hmdx Definition


Wind Chill Definition


Weather Definition


00:00 -6.2 -7.3 92 2.3 6 21   100.90   -13 LegendNANA
01:00 -6.0 -7.2 91 2.2 6 22   100.68   -13 LegendNANA
02:00 -6.4 -7.7 90 1.3 4 20   100.47   -13 LegendNANA
03:00 -6.6 -8.0 89 0.5 3 14   100.33   -12 LegendNANA
04:00 -6.6 -8.5 86 0.2 1 10   100.27   -11 LegendNANA
05:00 -6.6 -8.6 86 0.0 34 12   100.43   -12 LegendNANA
06:00 -7.2 -9.7 82 0.0 34 19   100.54   -14 LegendNANA
07:00 -8.1 -10.8 81 0.0 33 12   100.65   -14 LegendNANA
08:00 -8.3 -11.0 81 0.0 32 9   100.83   -13 LegendNANA
09:00 -8.3 -11.5 78 0.0 30 10   100.98   -13 LegendNANA
10:00 -7.1 -11.8 69 0.0 32 9   101.06   -11 LegendNANA
11:00 -6.0 -11.9 63 0.0 32 13   101.15   -11 LegendNANA
12:00 -6.2 -13.1 58 0.0 31 16   101.24   -12 LegendNANA
13:00 -6.1 -13.3 57 0.0 31 15   101.25   -12 LegendNANA
14:00 -6.4 -13.4 57 0.0 30 16   101.28   -13 LegendNANA
15:00 -7.0 -14.4 56 0.0 30 15   101.32   -13 LegendNANA
16:00 -7.0 -14.3 56 0.0 30 15   101.42   -13 LegendNANA
17:00 -7.6 -14.6 57 0.0 32 7   101.51   -11 LegendNANA
18:00 -10.3 -15.8 64 0.0 29 8   101.57   -15 LegendNANA
19:00 -12.9 -16.6 74 0.0 26 4   101.64   -16 LegendNANA
20:00 -15.4 -17.6 83 0.0 27 8   101.72   -21 LegendNANA
21:00 -15.4 -17.9 82 0.0 27 8   101.80   -21 LegendNANA
22:00 -15.3 -17.1 86 0.0 26 8   101.84   -21 LegendNANA
23:00 -17.8 -19.1 90 0.0 24 8   101.85   -24 LegendNANA

Notes on Data Quality.

Legend

  • E = Estimated
  • M = Missing
  • NA = Not Available*
  • [empty] = Indicates an unobserved value
Date modified: